Regional Weather Roundup
Issued by NWS

Home | Current Version | Previous Version | Text Only | Print | Product List | Glossary Off
Versions: 1 2 3 4 5 6 7 8 9 10 11 12 13 14 15 16 17 18 19 20 21 22 23 24 25 26 27 28 29 30 31 32 33 34 35 36 37 38 39 40 41 42 43 44 45 46 47 48 49 50

000
ASUS45 KTFX 230510
RWRMT
MONTANA REGIONAL WEATHER ROUNDUP
NATIONAL WEATHER SERVICE GREAT FALLS MT
1100 PM MDT SAT JUL 22 2017

NOTE: "FAIR" INDICATES FEW OR NO CLOUDS BELOW 12000 FEET WITH NO
SIGNIFICANT WEATHER AND/OR OBSTRUCTIONS TO VISIBILITY.

MTZ001>007-043-230600-
WEST OF THE DIVIDE

CITY           SKY/WX    TMP DP  RH WIND       PRES   REMARKS
KALISPELL      CLEAR     66  49  54 CALM      30.07R
MISSOULA       CLEAR     72  44  36 CALM      30.10R
BUTTE          CLEAR     63  40  42 SE7       30.25S
MULLAN PASS    CLEAR     61  41  47 VRB5      30.29S
ANACONDA         N/A     63  43  48 SW7       30.22R
DEER LODGE       N/A     66  41  39 CALM      30.21F
EUREKA           N/A     72  48  43 MISG      30.06S
HAMILTON         N/A     64  50  59 CALM      30.13S
LIBBY            N/A     72  46  40 SE6       30.07R
$$

MTZ008-052>055-230600-
SOUTHWEST MONTANA

CITY           SKY/WX    TMP DP  RH WIND       PRES   REMARKS
BOZEMAN        CLEAR     71  35  26 S8        30.15F
DILLON         CLEAR     71  32  23 CALM      30.19R
W YELLOWSTONE  CLEAR     61  37  41 CALM      30.31S
ENNIS          CLEAR     66  30  26 S5        30.25S
$$

MTZ009-010-012-014-046-048-049-054-230600-
EAST SLOPES AND CENTRAL MONTANA

CITY           SKY/WX    TMP DP  RH WIND       PRES   REMARKS
CUT BANK       CLEAR     66  43  43 W9        30.09S
GREAT FALLS    CLEAR     74  38  27 NE6       30.09R
HELENA         CLEAR     77  41  27 SW8       30.12S
CHOTEAU          N/A     68  43  40 NW7       30.13S
$$

MTZ011-013-016-021-045-047-050-051-230600-
NORTH CENTRAL MONTANA

CITY           SKY/WX    TMP DP  RH WIND       PRES   REMARKS
HAVRE          CLEAR     68  41  37 S7        30.01S
LEWISTOWN      CLEAR     63  40  42 S6        30.14S
N BAR RANCH      N/A     64  37  36 W5        30.19S
CHINOOK          N/A     72  46  40 CALM      30.00S
$$

MTZ017>020-022>027-061-062-230600-
NORTHEAST MONTANA

CITY           SKY/WX    TMP DP  RH WIND       PRES   REMARKS
GLASGOW        CLEAR     68  45  43 MISG      30.03S
JORDAN           N/A     69  42  37 E3        30.06S
SIDNEY         CLEAR     65  46  50 N6        30.05R
WOLF POINT     CLEAR     68  45  43 E5        30.04S
MALTA          CLEAR     68  48  49 NE6       30.02S
PLENTYWOOD       N/A     64  50  59 CALM      30.05F
POPLAR           N/A     66  48  52 N6        30.05S
$$

MTZ028>42-056>058-230600-
SOUTHCENTRAL AND SOUTHEAST MONTANA

CITY           SKY/WX    TMP DP  RH WIND       PRES   REMARKS
BAKER          CLEAR     66  41  40 CALM      30.09S
BILLINGS       CLEAR     76  33  21 NE3       30.09R
LIVINGSTON     CLEAR     60  33  36 CALM      30.17R
MILES CITY     CLEAR     75  40  28 E6        30.06R
BIG TIMBER     CLEAR     72  34  25 N8        30.18S
FORSYTH          N/A     72  39  30 CALM      30.06R
LAUREL           N/A     73  34  23 NE9       30.09S
$$

REGIONAL REPORTS...DAKOTAS

CITY           SKY/WX    TMP DP  RH WIND       PRES   REMARKS
WILLISTON      CLEAR     63  50  62 N3        30.05R
MINOT          CLEAR     61  53  75 NW7       30.03R
DICKINSON      CLEAR     64  50  60 NE6       30.05R
BEACH          CLOUDY    57  50  77 CALM      30.11R
CROSBY           N/A     57  55  94 SE5       30.06S
TIOGA            N/A     57  55  94 NE5       30.07S
WATFORD CITY     N/A     59  48  67 CALM      30.05R
BISMARCK       CLEAR     65  56  72 NE6       30.02S
GRAND FORKS    CLEAR     64  61  90 NW9       29.90R
FARGO          CLEAR     65  59  81 NW7       29.90S
BUFFALO SD       N/A     69  46  43 CALM      30.03R
RAPID CITY     CLEAR     66  44  45 NE7       30.10R
$$

REGIONAL REPORTS...WYOMING/IDAHO/WASHINGTON

CITY           SKY/WX    TMP DP  RH WIND       PRES   REMARKS
GILLETTE       CLEAR     60  36  40 CALM      30.16R
SHERIDAN       CLEAR     62  44  51 S5        30.14R
BUFFALO WY     CLEAR     69  35  28 W12       30.21S
CODY           CLEAR     65  33  30 S6        30.21R
YELLOWSTONE LA   N/A     50  38  63 NW3       30.42R
IDAHO FALLS    CLEAR     67  50  54 CALM      30.15R
BOISE          CLEAR     77  38  24 CALM      30.01S
SPOKANE        PTCLDY    77  49  37 SW5       30.07S
$$

REGIONAL REPORTS...ALBERTA

CITY           SKY/WX    TMP DP  RH WIND       PRES   REMARKS
EDMONTON       CLEAR     63  55  77 S3        29.93F
CALGARY        PTCLDY    72  45  37 NW10      30.04S
LETHBRIDGE     CLEAR     72  48  43 W10       30.02R
MEDICINE HAT   CLEAR     70  46  43 S6        29.97S
WATERTON GATE    N/A     57  48  72 SW2         N/A
MILK RIVER       N/A     63  52  67 NW6         N/A
$$

REGIONAL REPORTS...SASKATCHEWAN

CITY           SKY/WX    TMP DP  RH WIND       PRES   REMARKS
SWIFT CURRENT  CLEAR     57  50  77 SE8       30.03F
REGINA         PTCLDY    61  54  77 SE8       30.02F
SASKATOON      PTCLDY    63  55  77 SE3       30.00S
VAL MARIE        N/A     57  46  67 E7          N/A
ROCKGLEN         N/A     64  50  59 E1          N/A
$$



USA.gov is the U.S. government's official web portal to all federal, state and local government web resources and services.